Regional Weather Roundup
Issued by NWS

Home | Current Version | Previous Version | Graphics & Text | Print | Product List | Glossary On
Versions: 1 2 3 4 5 6 7 8 9 10 11 12 13 14 15 16 17 18 19 20 21 22 23 24 25 26 27 28 29 30 31 32 33 34 35 36 37 38 39 40 41 42 43 44 45 46 47 48 49 50
000
ASUS43 KLOT 280108
RWRIL

ILLINOIS REGIONAL WEATHER ROUNDUP
NATIONAL WEATHER SERVICE CHICAGO/ROMEOVILLE IL
800 PM CDT THU APR 27 2017

NOTE: "FAIR" INDICATES FEW OR NO CLOUDS BELOW 12,000 FEET WITH NO
SIGNIFICANT WEATHER AND/OR OBSTRUCTIONS TO VISIBILITY.

* THESE STATIONS ARE NOT UNDER NWS QUALITY CONTROL. THEY ALSO MAY NOT
  REPORT WEATHER SUCH AS PRECIPITATION OR FOG.

ILZ001-002-007-009-015-016-024-280200-
NORTHWEST ILLINOIS

CITY           SKY/WX    TMP DP  RH WIND       PRES   REMARKS
MOLINE         PTCLDY    44  36  73 SW5       29.77R
STERLING*      CLOUDY    43  37  79 W7        29.78R
SAVANNA*       CLOUDY    44  36  73 W5        29.77R
$$

ILZ003-004-008-010-011-017-018-280200-
NORTH CENTRAL ILLINOIS

CITY           SKY/WX    TMP DP  RH WIND       PRES   REMARKS
ROCKFORD       CLOUDY    43  35  73 W9        29.78R
FREEPORT*      CLOUDY    41  35  77 W8        29.77R
ROCHELLE*      CLOUDY    42  38  85 SW9       29.79R
DE KALB*       CLOUDY    42  36  78 SW10      29.79R
PERU*          CLOUDY    44  37  76 NW3       29.79S
$$

ILZ005-006-012>014-019>023-280200-
NORTHEAST ILLINOIS

CITY           SKY/WX    TMP DP  RH WIND       PRES   REMARKS
CHICAGO-OHARE  CLOUDY    45  34  65 W15       29.77R
CHICAGO-MIDWAY CLOUDY    47  38  71 W16       29.78R
AURORA         CLOUDY    44  37  76 SW10      29.79R
LANSING*       CLOUDY    47  41  80 W14G20    29.79R
JOLIET*        CLOUDY    47  39  74 W7        29.81R
WAUKEGAN       CLOUDY    43  34  70 W10G24    29.74R
DUPAGE AIRPORT CLOUDY    44  36  73 W13G21    29.78R
KANKAKEE*      CLOUDY    48  40  74 W9        29.82R
WHEELING       CLOUDY    44  35  70 SW15      29.77R
MORRIS*        CLOUDY    46  38  76 CALM      29.79R
ROMEOVILLE*    CLOUDY    44  40  83 W15G21    29.80R
NORTHERLY ISL    N/A     47  36  65 SW14        N/A
$$

LMZ740>746-280200-
SOUTHERN LAKE MICHIGAN

STATION/POSITION SKY/WX   TEMP    WIND        PRES    VSBY  WAVE
                          AIR SEA DIR/SP/G                  HT/PER
                          (F)     (DEG/KT/KT) (MB)    (MI)  (FT/S)
SOUTHERN BUOY              43 41  250/ 14/ 17 1006.5          3/ 5
HARRISON CRIB              47     250/ 17/ 23   N/A
BURNHAM HARBOR             46     230/ 10/ 17   N/A
CALUMET HARBOR             47     230/  8/ 14 1007.3R
BURNS HARBOR               48     230/ 13/ 19 1008.5R
MICHIGAN CITY              48     200/ 16/ 19   N/A
MICHIGAN CITY 6N           47 47                N/A           3/ 4
ST. JOSEPH                 46 48  260/ 10/ 14 1008.8          3/ 4
$$

ILZ025>027-034>036-040-047-049-050-058-095>099-280200-
WEST-CENTRAL ILLINOIS

CITY           SKY/WX    TMP DP  RH WIND       PRES   REMARKS
QUINCY         CLOUDY    52  44  74 S3        29.79R
GALESBURG*     CLOUDY    48  41  76 CALM      29.78R
MACOMB*        MOCLDY    50  44  79 SW5       29.80R
JACKSONVILLE*  CLOUDY    54  45  72 CALM      29.81R
PITTSFIELD*    MOCLDY    55  44  68 CALM      29.81R
$$

ILZ028>032-037-038-041>044-048-051>054-059>061-280200-
CENTRAL ILLINOIS

CITY           SKY/WX    TMP DP  RH WIND       PRES   REMARKS
PONTIAC        CLOUDY    49  44  81 CALM      29.80S
BLOOMINGTON    CLOUDY    49  42  77 SW6       29.81R
DECATUR        CLOUDY    51  45  79 S7        29.82R
PEORIA         CLOUDY    51  41  68 W3        29.80R
LACON*         PTCLDY    46  40  80 CALM      29.78S
LINCOLN*       CLOUDY    53  45  74 CALM      29.82R
SPRINGFIELD    CLOUDY    55  44  66 SW5       29.82R
TAYLORVILLE    CLOUDY    51  46  80 S6        29.83R
$$

ILZ033-039-045-046-055>057-062-063-280200-
EAST-CENTRAL ILLINOIS

CITY           SKY/WX    TMP DP  RH WIND       PRES   REMARKS
CHAMPAIGN      CLOUDY    50  43  77 S6        29.82R
RANTOUL*       CLOUDY    51  45  79 S5        29.81S
MATTOON        CLEAR     50  43  77 SW5       29.82R
PARIS*         MOCLDY    50  46  85 W5        29.85R
$$

ILZ079-100>102-280200-
SOUTHWEST ILLINOIS

CITY           SKY/WX    TMP DP  RH WIND       PRES   REMARKS
ALTON          MOCLDY    54  46  76 VRB5      29.81R
BELLEVILLE     PTCLDY    56  49  77 CALM      29.79S
CAHOKIA*       MOCLDY    58  47  66 E5        29.79S
SPARTA*        CLEAR     55  48  76 SE6       29.82R
$$

ILZ064>066-069>071-074>076-080>082-084>086-088>090-092>094-280200-
SOUTH-CENTRAL ILLINOIS

CITY           SKY/WX    TMP DP  RH WIND       PRES   REMARKS
CARBONDALE     CLEAR     54  48  80 SE3       29.81F
CAIRO*         PTCLDY    56  50  81 SE5       29.82S
EFFINGHAM*     CLEAR     51  47  84 CALM      29.85R
MARION         CLEAR     54  52  94 CALM      29.83S
MT. VERNON     CLEAR     51  46  83 CALM      29.84R
CENTRALIA*     CLEAR     54  48  81 SE5       29.82R
SALEM*         CLEAR     54  48  80 CALM      29.83R
METROPOLIS*    PTCLDY    54  51  88 CALM      29.84S
$$

ILZ067-068-072-073-078-083-087-091-280200-
SOUTHEAST ILLINOIS

CITY           SKY/WX    TMP DP  RH WIND       PRES   REMARKS
LAWRENCEVILLE  CLEAR     52  45  77 SW3       29.85R
FLORA*         CLEAR     54  47  78 S3        29.84R
FAIRFIELD*     CLEAR     53  47  79 CALM      29.84R
HARRISBURG*    CLEAR     55  50  81 SE5       29.84S
ROBINSON*      PTCLDY    50  46  86 S3        29.86R
CARMI*         CLEAR     52  47  83 S3        29.85R
$$

ABBREVIATIONS USED IN REMARKS
   TC - TEMPERATURE IN CELSIUS
  WCI - WIND CHILL INDEX
   HX - HEAT INDEX
  VSB - VISIBILITY
$$




USA.gov is the U.S. government's official web portal to all federal, state and local government web resources and services.